Location: Zagreb
(45.8000°N, 16.0000°E)
Time: 14:41:06
(UTC+02:00)

Tiros 1 despin weight - Pass Details

Date: 17 August 2022
Orbit: 590 x 639 km, 48.2° (Epoch: 23 September)

Event Time Altitude Azimuth Distance (km) Brightness Sun altitude
Rises 18:03:07 0° 278° (W) 2,825 ? 19.4°
Reaches altitude 10° 18:07:30 10° 237° (WSW) 1,912 ? 18.6°
Maximum altitude 18:08:12 10° 227° (SW) 1,889 ? 18.5°
Drops below altitude 10° 18:08:55 10° 218° (SW) 1,910 ? 18.3°
Sets 18:13:16 0° 177° (S) 2,805 ? 17.6°
